Вернуться в каталог

PELICAN-1 3001

АктивенНаукаSSO
NORAD 58296·PAYLOAD·🇺🇸 United States

Запущен Nov 11, 2023 с Vandenberg Space Force Base

Loading…

Ближайшие Пролёты (ближайшие 24 часа)

TLE

СвежийSource: CelesTrak SupGP

Эпоха: Sep 14, 2026, 20:44 UTC

1 58296C 23174AS  26257.86432870  .00037624  00000+0  34107-3 0  2573
2 58296  97.4000   3.5766 0001863  67.2647  66.4650 15.67999019    13

Отслеживайте PELICAN-1 3001 в реальном времени с AllMySat

Download on the App Store